Weather in Ryazanovka

Russia / Orenburg Oblast     53°23′27″N   53°10′58″E
temp.,
°C
wind,
m/s
gust,
m/s
humid.,
%
clouds,
%
prec.,
mm/h
press.,
hPa
HPBL,
m
25 february, thu
thu2523:00−25nnw410930 0.0 1032196
02:00−27n33951 0.0 103339
05:00−29nw22971 0.0 103419
08:00−30wnw11980 0.0 103519
11:00−26wsw11910 0.0 103530
14:00−23s239018 0.0 1034193
17:00−22s369259 0.0 1032240
20:00−22sse3895100 0.0 1030219
26 february, fri
fri2623:00−21sse5997100 0.1 1029314
02:00−20sse51198100 0.6 1026424
05:00−20sse51197100 1.0 1025446
08:00−20sse61297100 0.4 1022442
11:00−17sse71295100 0.8 1022521
14:00−14sse71192100 0.3 1020635
17:00−13sse61192100 0.6 1019634
20:00−14sse51295100 0.3 1017489
27 february, sat
sat2723:00−12sse61394100 0.6 1013482
02:00−10sse91694100 1.2 1007493
05:00−7s81695100 5.5 1002649
08:00−4s71396100 4.3 999457
11:00+1wsw611100100 4.9 999502
14:000wsw71199100 0.3 998670
17:000wsw51099100 0.6 999647
20:00−1sw51098100 0.5 999475
28 february, sun
sun2823:00−1sw5997100 0.9 999437
02:00−1sw5997100 0.4 998444
05:00−2sw5997100 1.2 998400
08:00−3sw379899 0.6 999209
11:00−6wnw4596100 1.4 1001205
14:00−7wnw4595100 0.4 1003303
17:00−9nw4694100 0.8 1005351
20:00−13nw489694 0.1 1007184
1 march, mon
mon123:00−16nw339788 0.1 101054
02:00−17wnw239884 0.0 101141
05:00−17wnw239783 0.1 101379
08:00−16nw229797 0.1 101529
11:00−14nnw359493 0.3 1016275
14:00−12nnw349194 0.1 1018342
17:00−12nnw359297 0.1 1019397
20:00−15nnw3396100 0.1 102166